Tracking 29892 objects as of 21-Nov-2024
HD Live streaming from Space Station
objects crossing your sky now

NOAA 16 DEB

Track NOAA 16 DEB now!
10-day predictions


NORAD ID: 41510
Int'l Code: 2000-055MJ
Perigee: 802.3 km
Apogee: 840.2 km
Inclination: 98.8 °
Period: 101.2 minutes
Semi major axis: 7192 km
RCS: Unknown
Launch date: September 21, 2000
Source: United States (US)
Launch site: AIR FORCE WESTERN TEST RANGE (AFWTR)

Note: This is SATELLITE DEBRIS
Your satellite tracking list
Your tracking list is empty




NASA's NSSDC Master Catalog

Two Line Element Set (TLE):
1 41510U 00055MJ  24325.17756631  .00008531  00000-0  37655-2 0  9998
2 41510  98.7745  46.8794 0026364 237.4845 122.3785 14.23338195447524
Source of the keplerian elements: AFSPC